Weather History for New Bedford, MA

Change the Weather History Date:

Sunday, December 30, 2012

  Actual Average Record
Temperature  
Mean Temperature 26 °F -  
Max Temperature 32 °F 39 °F 58 °F (1984)
Min Temperature 21 °F 24 °F -3 °F (1962)
Degree Days  
Heating Degree Days 38    
Moisture  
Dew Point 22 °F    
Average Humidity 77    
Maximum Humidity 93    
Minimum Humidity 61    
Precipitation  
Precipitation 0.02 in - - ()
Sea Level Pressure  
Sea Level Pressure 29.62 in    
Wind  
Wind Speed 11 mph (NW)    
Max Wind Speed 17 mph    
Max Gust Speed 28 mph    
Visibility 8 miles    
Events Snow    
Averages and records for this station are not official NWS values.
T = Trace of Precipitation, MM = Missing Value Source: NWS Daily Summary

Daily Weather History Graph

Daily Weather History Graph

Search for Another Location

Airport:

Trip Planner

Search our weather history database for the weather conditions in past years. The results will help you decide how hot, cold, wet, or windy it might be!

Date:

Astronomy

Dec. 30, 2012 Rise Set
Actual Time 7:10 AM EST 4:22 PM EST
Civil Twilight 6:39 AM EST 4:54 PM EST
Nautical Twilight 6:04 AM EST 5:29 PM EST
Astronomical Twilight 5:30 AM EST 6:02 PM EST
Moon 6:53 PM EST (12/30) 8:16 AM EST (12/30)
Length of Visible Light 10h 14m
Length of Day
9h 12m
Waning Gibbous, 95% of the Moon is Illuminated
Dec 30
Waning Gibbous
Jan 4
Last Quarter
Jan 11
New
Jan 18
First Quarter
Jan 26
Full

Hourly Weather History & Observations

Time (EST) Temp. Windchill Dew Point Humidity Pressure Visibility Wind Dir Wind Speed Gust Speed Precip Events Conditions
12:14 AM 32.0 °F 23.6 °F 30.2 °F 93% 29.36 in 0.8 mi NNW 10.4 mph 19.6 mph 0.01 in Snow Light Snow
12:26 AM 32.0 °F 23.6 °F 30.2 °F 93% 29.36 in 1.0 mi NNW 10.4 mph 23.0 mph 0.02 in Snow Light Snow
12:45 AM 32.0 °F 24.2 °F 28.4 °F 87% 29.37 in 1.0 mi NNW 9.2 mph 27.6 mph 0.02 in Snow Light Snow
12:53 AM 32.0 °F 24.2 °F 28.9 °F 88% 29.37 in 1.0 mi NNW 9.2 mph 23.0 mph 0.02 in Snow Light Snow
12:56 AM 32.0 °F 23.6 °F 28.4 °F 87% 29.37 in 1.2 mi NNW 10.4 mph 19.6 mph 0.00 in Snow Light Snow
1:05 AM 30.2 °F 20.8 °F 28.4 °F 93% 29.37 in 2.0 mi NNW 11.5 mph 20.7 mph 0.00 in Snow Light Snow
1:18 AM 30.2 °F 21.3 °F 28.4 °F 93% 29.38 in 4.0 mi NNW 10.4 mph 20.7 mph 0.00 in Snow Light Snow
1:53 AM 30.9 °F 23.5 °F 28.0 °F 89% 29.41 in 9.0 mi NNW 8.1 mph 18.4 mph 0.00 in   Overcast
2:53 AM 30.0 °F 21.7 °F 27.0 °F 88% 29.44 in 10.0 mi NW 9.2 mph 18.4 mph N/A   Overcast
3:53 AM 30.0 °F 21.7 °F 27.0 °F 88% 29.47 in 10.0 mi WNW 9.2 mph - N/A   Overcast
4:11 AM 30.2 °F 21.3 °F 26.6 °F 86% 29.47 in 10.0 mi WNW 10.4 mph 16.1 mph N/A   Mostly Cloudy
4:53 AM 30.0 °F 21.1 °F 26.1 °F 85% 29.49 in 10.0 mi WNW 10.4 mph - N/A   Overcast
5:53 AM 30.0 °F 20.0 °F 26.1 °F 85% 29.52 in 10.0 mi West 12.7 mph - N/A   Mostly Cloudy
6:53 AM 28.9 °F 20.4 °F 24.1 °F 82% 29.55 in 10.0 mi WNW 9.2 mph 19.6 mph N/A   Clear
7:53 AM 28.0 °F 18.6 °F 23.0 °F 81% 29.59 in 10.0 mi NW 10.4 mph 23.0 mph N/A   Clear
8:53 AM 28.0 °F 16.5 °F 21.9 °F 78% 29.62 in 10.0 mi WNW 15.0 mph 24.2 mph N/A   Clear
9:53 AM 28.9 °F 16.9 °F 21.0 °F 72% 29.65 in 10.0 mi WNW 17.3 mph 27.6 mph N/A   Scattered Clouds
10:53 AM 30.0 °F 18.3 °F 21.9 °F 72% 29.66 in 10.0 mi WNW 17.3 mph 25.3 mph N/A   Clear
11:53 AM 30.0 °F 19.1 °F 23.0 °F 75% 29.65 in 10.0 mi WNW 15.0 mph 23.0 mph N/A   Clear
12:53 PM 30.0 °F 20.0 °F 21.0 °F 69% 29.67 in 10.0 mi WNW 12.7 mph 27.6 mph N/A   Overcast
1:53 PM 30.0 °F 18.7 °F 21.0 °F 69% 29.68 in 10.0 mi WNW 16.1 mph 23.0 mph N/A   Scattered Clouds
2:53 PM 28.9 °F 19.8 °F 18.0 °F 64% 29.71 in 10.0 mi WNW 10.4 mph 20.7 mph N/A   Clear
3:53 PM 28.9 °F 16.9 °F 17.1 °F 61% 29.74 in 10.0 mi WNW 17.3 mph 25.3 mph N/A   Clear
4:53 PM 27.0 °F 15.2 °F 16.0 °F 63% 29.78 in 10.0 mi WNW 15.0 mph 24.2 mph N/A   Clear
5:53 PM 26.1 °F 13.6 °F 15.1 °F 63% 29.83 in 10.0 mi WNW 16.1 mph 21.9 mph N/A   Clear
6:53 PM 25.0 °F 12.6 °F 15.1 °F 66% 29.87 in 10.0 mi WNW 15.0 mph 20.7 mph N/A   Clear
7:53 PM 24.1 °F 12.5 °F 14.0 °F 65% 29.90 in 10.0 mi WNW 12.7 mph 19.6 mph N/A   Clear
8:53 PM 24.1 °F 13.1 °F 12.9 °F 62% 29.92 in 10.0 mi NW 11.5 mph 20.7 mph N/A   Clear
9:53 PM 23.0 °F 9.6 °F 12.9 °F 65% 29.94 in 10.0 mi WNW 16.1 mph 25.3 mph N/A   Clear
10:53 PM 21.9 °F 9.8 °F 12.0 °F 66% 29.97 in 10.0 mi WNW 12.7 mph 19.6 mph N/A   Clear
11:53 PM 21.9 °F 13.4 °F 10.9 °F 63% 30.00 in 10.0 mi WNW 6.9 mph - N/A   Clear